GSLV R/B, 62851

Orbit data source: Space-Track

GSLV R/B, 62851 is space debris in HEO originally from a launch on Wed, 29 Jan 2025 UTC launched from the Sirharikota (SRI). Debris objects in space refer to the collection of defunct objects orbiting the Earth. Examples of debris include non-operational satellites, rocket bodies, and fragments generated from explosions, collisions, or faulty payload assembly.

Loading next visibility...
GSLV R/B details
Identifier
62851, 2025-020B
Orbit
HEO
Last TLE update1 day ago
Origin
Flag of INISRO (IN / IND)
ManufacturerISRO
MissionSpacecraft
Bus & MotorCUS15, Unknown motor
Mass2,630 kg wet, 2,630 kg dry
Launch date (UTC)
2025-01-29 (3 weeks ago)
Launch vehicleUnknown
Launch site
Sirharikota (SRI)
Object type
Payload
Rocket body
Debris
Shape & HBRUnknown
Radar Cross SectionLarge (>1 m²)

Expand to show TLE details & history

TLE from 1 day ago
0 GSLV R/B
1 62851U 25020B   25046.15209298  .00032170 -44423-6  12467-2 0  9993
2 62851  20.8442  76.4544 7382364 189.6166 138.1812  2.19241686   388
Epoch: 2025-02-15T03:39Z
Definitive object data (Epoch: 2025-02-15T03:39:00.833Z)
Latitude-0.00004°
Longitude-123.67451°
Altitude35,447.868 km
Speed1.771 km/s
True Right ascension05h 05m 55s
True Declination0° 00' 00"
Sunlit
Object was in daylight at TLE epoch
Visualization TLE readout
Latitude-5.25347°
Longitude-138.11999°
Altitude27,813.077 km
Speed2.718 km/s
Apparent Right ascension03h 49m 51s
Apparent Declination-10° 43' 15"
Sunlit
Object is in daylight
Visualization observer readout
Local Sidereal Time13:35:11
Azimuth305.048° NW
Elevation-48.295°
Doppler factor1
Orbital elements
Apogee altitude37,137.243 km
Perigee altitude174.909 km
Semi-major axis25,034.213 km
Eccentricity0.7382364
Inclination20.8442°
RAAN76.4544°
Arg. of periapsis189.6166°
True anomaly170.4212°
Mean anomaly138.1812°
Eccentric anomaly155.63266°
Mean motion0.54795 °/min
BSTAR0.0012467
Orbital period656.99 mins
Loading maneuver chart data...
Loading historical data...
Loading historical data...
Loading historical data...
Loading historical data...
Loading historical data...
Loading historical data...
Loading historical data...
Other satellites on launch #20 in the year 2025 (2025-01-29 UTC)

GSLV R/B Visibility forecast

Observer location: undefined°, undefined

Span
Click to sort rows by Start time (UTC) header in descending order
Start Az.
Max El. time (UTC)
Max El. Az.
Max El.
End time (UTC)
End Az.
498 mins2025-02-16 21:26:55.841Z119.275° SE2025-02-17 04:31:55.841Z150.873° SSE39.515°2025-02-17 05:44:55.841Z99.979° ESE
|